Home   Weather   Neubrandenburg   Past weeks

Flag for Germany Past Weather in Neubrandenburg, Mecklenburg-Western Pomerania, Germany — Yesterday and Last 2 Weeks

52 °F

Passing clouds.

Feels Like: 48 °F
Forecast: 46 / 54 °F
Wind: 12 mph from Southwest

Location: Laage

Current Time: Oct 28, 2016 at 6:44:05 AM

Latest Report: Oct 28, 2016 at 5:20 AM

Visibility: 4 mi

Pressure: 30.21 "Hg

Humidity: 88%

Dew Point: 48 °F

Location of NeubrandenburgLocation

Past Weather in Neubrandenburg — Graph


Neubrandenburg Temperature Yesterday

Maximum temperature yesterday: 54 °F (at 2:49 PM)
Minimum temperature yesterday: 43 °F (at 12:20 AM)
Average temperature yesterday: 48 °F

High & Low Weather Summary for the Past Weeks

High54 °F (Oct 27, 2:49 PM)100% (Oct 16, 12:20 PM)30.39 "Hg (Oct 16, 12:20 PM)
Low34 °F (Oct 26, 5:20 AM)67% (Oct 14, 4:20 PM)29.89 "Hg (Oct 15, 7:20 AM)
Average45 °F91%30.10 "Hg
* Reported Oct 13 5:20 AM — Oct 28 5:20 AM, Neubrandenburg, Weather by CustomWeather, © 2016

Note: Actual official high and low records may vary slightly from our data, if they occured in-between our weather recording intervals... More about our weather records


Neubrandenburg Weather History for the Previous 24 Hours

Scroll right to see more
Time TempWeatherWind HumidityBarometerVisibility
5:20 AM
Fri, Oct 28
52 °FPassing clouds.12 mph88%30.21 "Hg4 mi
4:20 AM52 °FPassing clouds.12 mph88%30.24 "Hg4 mi
3:20 AM52 °FPassing clouds.12 mph82%30.27 "Hg4 mi
2:20 AM52 °FPassing clouds.10 mph88%30.27 "Hg4 mi
1:20 AM52 °FPassing clouds.12 mph88%30.33 "Hg4 mi
12:20 AM52 °FPassing clouds.9 mph88%30.33 "Hg4 mi
11:20 PM
Thu, Oct 27
52 °FPassing clouds.8 mph88%30.33 "Hg4 mi
10:20 PM52 °FFog.9 mph88%30.33 "Hg3 mi
9:20 PM52 °FFog.9 mph94%30.36 "Hg3 mi
8:20 PM52 °FFog.7 mph88%30.36 "Hg3 mi
7:20 PM52 °FPassing clouds.7 mph94%30.36 "Hg4 mi
6:20 PM52 °FPassing clouds.8 mph88%30.36 "Hg4 mi
5:20 PM54 °FScattered clouds.7 mph88%30.36 "Hg4 mi
4:49 PM54 °FFog.7 mph88%30.36 "Hg3 mi
4:20 PM54 °FFog.7 mph88%30.36 "Hg3 mi
3:20 PM54 °FFog.7 mph88%30.36 "Hg2 mi
2:49 PM54 °FFog.8 mph94%30.36 "Hg2 mi
1:20 PM52 °FFog.6 mph94%30.36 "Hg1 mi
12:20 PM50 °FFog.6 mph100%30.36 "Hg1 mi
11:20 AM48 °FFog.7 mph100%30.36 "Hg1 mi
10:20 AM48 °FFog.9 mph94%30.33 "Hg1 mi
9:49 AM46 °FFog.9 mph100%30.33 "Hg1 mi
9:20 AM46 °FFog.9 mph100%30.33 "Hg1 mi
8:20 AM46 °FFog.8 mph93%30.30 "Hg1 mi
7:20 AM46 °FFog.8 mph93%30.30 "Hg1 mi
6:45 AM45 °FDrizzle. Fog.9 mph93%30.30 "Hg2 mi
6:20 AM45 °FDrizzle. Fog.7 mph93%30.30 "Hg2 mi
Weather by CustomWeather, © 2016

See weather overviewHow to use our weather pages